When you browse on this site, cookies collect data to enhance your experience and personalize the content and advertising you see.
Visit our Privacy Policy to learn more. By continuing to use the site, you agree to this use of cookies and data.

Stündliche Wetter Caucaia

Heute, 4 Juli, Samstag

Zeit Temperatur Niederschläge Wind Luftdruck Luftfeuchtigkeit
00:00 +26°C° 0 mm 3 m/S 757 mmHg 85%
01:00 +26°C° 0.1 mm 3 m/S 757 mmHg 86%
02:00 +26°C° 0.1 mm 4 m/S 756 mmHg 87%
03:00 +26°C° 0.1 mm 4 m/S 756 mmHg 88%
04:00 +26°C° 0.2 mm 4 m/S 756 mmHg 89%
05:00 +25°C° 0.2 mm 4 m/S 756 mmHg 90%
06:00 +25°C° 0.2 mm 4 m/S 757 mmHg 91%
07:00 +26°C° 0.1 mm 4 m/S 757 mmHg 84%
08:00 +28°C° 0.1 mm 5 m/S 757 mmHg 76%
09:00 +29°C° 0.1 mm 5 m/S 758 mmHg 68%
10:00 +30°C° 0 mm 5 m/S 757 mmHg 65%
11:00 +32°C° 0 mm 6 m/S 757 mmHg 61%
12:00 +33°C° 0 mm 6 m/S 757 mmHg 57%
13:00 +33°C° 0 mm 6 m/S 756 mmHg 58%
14:00 +33°C° 0 mm 6 m/S 756 mmHg 58%
15:00 +33°C° 0 mm 6 m/S 755 mmHg 59%
16:00 +30°C° 0 mm 5 m/S 756 mmHg 65%
17:00 +29°C° 0 mm 4 m/S 756 mmHg 71%
18:00 +28°C° 0 mm 3 m/S 756 mmHg 77%
19:00 +27°C° 0 mm 3 m/S 756 mmHg 79%
20:00 +27°C° 0 mm 3 m/S 757 mmHg 81%
21:00 +27°C° 0 mm 3 m/S 757 mmHg 84%
22:00 +27°C° 0 mm 3 m/S 757 mmHg 85%
23:00 +26°C° 0 mm 3 m/S 757 mmHg 86%

Morgen, 5 Juli, Sonntag

Zeit Temperatur Niederschläge Wind Luftdruck Luftfeuchtigkeit
00:00 +26°C° 0 mm 4 m/S 757 mmHg 87%
01:00 +26°C° 0 mm 4 m/S 756 mmHg 88%
02:00 +26°C° 0 mm 4 m/S 756 mmHg 88%
03:00 +26°C° 0 mm 4 m/S 756 mmHg 88%
04:00 +26°C° 0 mm 4 m/S 756 mmHg 87%
05:00 +25°C° 0 mm 4 m/S 756 mmHg 86%
06:00 +25°C° 0 mm 4 m/S 756 mmHg 85%
07:00 +26°C° 0 mm 4 m/S 757 mmHg 78%
08:00 +28°C° 0 mm 5 m/S 757 mmHg 70%
09:00 +29°C° 0 mm 5 m/S 758 mmHg 63%
10:00 +30°C° 0 mm 5 m/S 757 mmHg 60%
11:00 +32°C° 0 mm 5 m/S 757 mmHg 58%
12:00 +33°C° 0 mm 5 m/S 757 mmHg 55%
13:00 +33°C° 0 mm 5 m/S 756 mmHg 56%
14:00 +33°C° 0 mm 5 m/S 756 mmHg 57%
15:00 +33°C° 0 mm 5 m/S 755 mmHg 59%
16:00 +32°C° 0 mm 4 m/S 755 mmHg 64%
17:00 +29°C° 0 mm 4 m/S 756 mmHg 70%
18:00 +28°C° 0 mm 3 m/S 756 mmHg 76%
19:00 +28°C° 0.1 mm 3 m/S 756 mmHg 77%
20:00 +27°C° 0.1 mm 3 m/S 757 mmHg 79%
21:00 +27°C° 0.1 mm 3 m/S 757 mmHg 81%
22:00 +27°C° 0.6 mm 4 m/S 757 mmHg 83%
23:00 +26°C° 0.6 mm 4 m/S 757 mmHg 85%

übermorgen, 6 Juli, Montag

Zeit Temperatur Niederschläge Wind Luftdruck Luftfeuchtigkeit
00:00 +26°C° 0.6 mm 4 m/S 757 mmHg 86%
01:00 +26°C° 1.1 mm 4 m/S 757 mmHg 88%
02:00 +25°C° 1.1 mm 4 m/S 756 mmHg 90%
03:00 +25°C° 1.1 mm 4 m/S 756 mmHg 91%
04:00 +25°C° 1.6 mm 4 m/S 756 mmHg 91%
05:00 +25°C° 1.6 mm 4 m/S 756 mmHg 91%
06:00 +25°C° 1.6 mm 4 m/S 757 mmHg 91%
07:00 +26°C° 0.1 mm 4 m/S 757 mmHg 87%
08:00 +27°C° 0.1 mm 4 m/S 757 mmHg 82%
09:00 +28°C° 0.1 mm 5 m/S 758 mmHg 77%
10:00 +29°C° 0.1 mm 5 m/S 757 mmHg 72%
11:00 +30°C° 0.1 mm 5 m/S 757 mmHg 67%
12:00 +32°C° 0.1 mm 5 m/S 757 mmHg 62%
13:00 +32°C° 0.4 mm 5 m/S 756 mmHg 64%
14:00 +32°C° 0.4 mm 5 m/S 756 mmHg 66%
15:00 +32°C° 0.4 mm 5 m/S 755 mmHg 68%
16:00 +29°C° 0.1 mm 4 m/S 755 mmHg 71%
17:00 +28°C° 0.1 mm 4 m/S 755 mmHg 75%
18:00 +27°C° 0.1 mm 3 m/S 756 mmHg 79%
19:00 +27°C° 0.1 mm 3 m/S 756 mmHg 80%
20:00 +27°C° 0.1 mm 3 m/S 756 mmHg 82%
21:00 +26°C° 0.1 mm 2 m/S 757 mmHg 83%
22:00 +26°C° 0 mm 3 m/S 757 mmHg 84%
23:00 +26°C° 0 mm 3 m/S 756 mmHg 84%

7 Juli, Dienstag

Zeit Temperatur Niederschläge Wind Luftdruck Luftfeuchtigkeit
00:00 +26°C° 0 mm 3 m/S 756 mmHg 85%
01:00 +26°C° 0.2 mm 3 m/S 756 mmHg 85%
02:00 +25°C° 0.2 mm 3 m/S 756 mmHg 86%
03:00 +25°C° 0.2 mm 4 m/S 755 mmHg 87%
04:00 +25°C° 0.1 mm 4 m/S 755 mmHg 87%
05:00 +25°C° 0.1 mm 4 m/S 755 mmHg 87%
06:00 +25°C° 0.1 mm 4 m/S 756 mmHg 86%
07:00 +26°C° 0 mm 5 m/S 756 mmHg 80%
08:00 +28°C° 0 mm 5 m/S 756 mmHg 73%
09:00 +29°C° 0 mm 5 m/S 757 mmHg 67%
10:00 +30°C° 0 mm 5 m/S 757 mmHg 63%
11:00 +32°C° 0 mm 5 m/S 756 mmHg 60%
12:00 +33°C° 0 mm 5 m/S 756 mmHg 57%
13:00 +32°C° 0.3 mm 5 m/S 755 mmHg 60%
14:00 +32°C° 0.3 mm 5 m/S 755 mmHg 64%
15:00 +32°C° 0.3 mm 4 m/S 754 mmHg 67%
16:00 +30°C° 0.1 mm 4 m/S 754 mmHg 71%
17:00 +28°C° 0.1 mm 4 m/S 755 mmHg 75%
18:00 +27°C° 0.1 mm 3 m/S 755 mmHg 78%
19:00 +27°C° 0.4 mm 3 m/S 755 mmHg 80%
20:00 +27°C° 0.4 mm 4 m/S 756 mmHg 81%
21:00 +27°C° 0.4 mm 4 m/S 756 mmHg 82%
22:00 +26°C° 0.5 mm 4 m/S 756 mmHg 83%
23:00 +26°C° 0.5 mm 4 m/S 756 mmHg 84%

8 Juli, Mittwoch

Zeit Temperatur Niederschläge Wind Luftdruck Luftfeuchtigkeit
00:00 +26°C° 0.5 mm 4 m/S 756 mmHg 84%
01:00 +26°C° 0.3 mm 4 m/S 755 mmHg 85%
02:00 +26°C° 0.3 mm 4 m/S 755 mmHg 87%
03:00 +25°C° 0.3 mm 4 m/S 755 mmHg 88%
04:00 +25°C° 0.1 mm 4 m/S 755 mmHg 87%
05:00 +25°C° 0.1 mm 4 m/S 755 mmHg 86%
06:00 +25°C° 0.1 mm 4 m/S 756 mmHg 85%
07:00 +26°C° 0.1 mm 5 m/S 756 mmHg 80%
08:00 +27°C° 0.1 mm 5 m/S 756 mmHg 74%
09:00 +29°C° 0.1 mm 6 m/S 757 mmHg 68%
10:00 +30°C° 0 mm 6 m/S 757 mmHg 64%
11:00 +32°C° 0 mm 6 m/S 756 mmHg 61%
12:00 +33°C° 0 mm 6 m/S 756 mmHg 58%
13:00 +33°C° 0 mm 6 m/S 756 mmHg 58%
14:00 +33°C° 0 mm 6 m/S 755 mmHg 59%
15:00 +33°C° 0 mm 5 m/S 755 mmHg 59%
16:00 +32°C° 0 mm 5 m/S 755 mmHg 65%
17:00 +29°C° 0 mm 4 m/S 755 mmHg 70%
18:00 +28°C° 0 mm 4 m/S 755 mmHg 76%
19:00 +28°C° 0.1 mm 4 m/S 756 mmHg 78%
20:00 +27°C° 0.1 mm 4 m/S 756 mmHg 80%
21:00 +27°C° 0.1 mm 4 m/S 757 mmHg 82%
22:00 +27°C° 0.2 mm 4 m/S 757 mmHg 83%
23:00 +27°C° 0.2 mm 4 m/S 757 mmHg 83%

9 Juli, Donnerstag

Zeit Temperatur Niederschläge Wind Luftdruck Luftfeuchtigkeit
00:00 +26°C° 0.2 mm 4 m/S 756 mmHg 84%
01:00 +26°C° 0.2 mm 4 m/S 756 mmHg 84%
02:00 +26°C° 0.2 mm 4 m/S 756 mmHg 85%
03:00 +26°C° 0.2 mm 4 m/S 756 mmHg 86%
04:00 +25°C° 0.2 mm 4 m/S 756 mmHg 87%
05:00 +25°C° 0.2 mm 4 m/S 756 mmHg 88%
06:00 +25°C° 0.2 mm 3 m/S 757 mmHg 89%
07:00 +26°C° 0 mm 4 m/S 757 mmHg 82%
08:00 +28°C° 0 mm 4 m/S 758 mmHg 74%
09:00 +29°C° 0 mm 4 m/S 758 mmHg 67%
10:00 +30°C° 0.1 mm 5 m/S 758 mmHg 63%
11:00 +32°C° 0.1 mm 5 m/S 758 mmHg 59%
12:00 +33°C° 0.1 mm 5 m/S 757 mmHg 56%
13:00 +33°C° 0.3 mm 5 m/S 757 mmHg 59%
14:00 +32°C° 0.3 mm 5 m/S 756 mmHg 62%
15:00 +32°C° 0.3 mm 5 m/S 756 mmHg 65%
16:00 +30°C° 0.1 mm 4 m/S 756 mmHg 70%
17:00 +29°C° 0.1 mm 4 m/S 756 mmHg 74%
18:00 +28°C° 0.1 mm 3 m/S 757 mmHg 79%
19:00 +27°C° 0.1 mm 3 m/S 757 mmHg 80%
20:00 +27°C° 0.1 mm 3 m/S 757 mmHg 81%
21:00 +27°C° 0.1 mm 3 m/S 758 mmHg 82%
22:00 +27°C° 0.2 mm 3 m/S 758 mmHg 83%
23:00 +27°C° 0.2 mm 4 m/S 758 mmHg 83%
Mehr zeigen